This is the latest recevied weather packets stored in our database for station/object KD7AWQ. If no packets are shown the sender has not sent any weather packets the latest 10 day(s).
| Time | Temp. | Humidity | Pressure | Rain* | Wind** | Luminosity | Snow |
|---|---|---|---|---|---|---|---|
| 1787774467 | 38.33° C | 14% | 1188.4 hPa | 0 mm | - | 1037 W/m² | - |
| 1787774166 | 37.78° C | 15% | 1188.7 hPa | 0 mm | - | 1155 W/m² | - |
| 1787773865 | 37.78° C | 15% | 1188.7 hPa | 0 mm | - | 626 W/m² | - |
| 1787773564 | 37.78° C | 14% | 1188.6 hPa | 0 mm | - | 1132 W/m² | - |
| 1787773261 | 37.78° C | 15% | 1188.7 hPa | 0 mm | - | 1142 W/m² | - |
| 1787772955 | 37.22° C | 15% | 1188.6 hPa | 0 mm | - | 815 W/m² | - |
| 1787772651 | 37.22° C | 15% | 1188.8 hPa | 0 mm | - | 949 W/m² | - |
| 1787772349 | 36.67° C | 16% | 1188.8 hPa | 0 mm | - | 775 W/m² | - |
| 1787772049 | 37.22° C | 15% | 1189 hPa | 0 mm | - | 602 W/m² | - |
| 1787771749 | 36.67° C | 15% | 1188.8 hPa | 0 mm | - | 711 W/m² | - |
| 1787771447 | 37.22° C | 16% | 1189.1 hPa | 0 mm | - | 621 W/m² | - |
| 1787771147 | 37.78° C | 15% | 1189.3 hPa | 0 mm | - | 573 W/m² | - |
| 1787770843 | 37.22° C | 15% | 1189.3 hPa | 0 mm | - | 780 W/m² | - |
| 1787770541 | 36.67° C | 16% | 1189.2 hPa | 0 mm | - | 917 W/m² | - |
| 1787770241 | 36.67° C | 15% | 1189.8 hPa | 0 mm | - | 951 W/m² | - |
| 1787769939 | 36.67° C | 15% | 1189.3 hPa | 0 mm | - | 1009 W/m² | - |
| 1787769635 | 36.67° C | 15% | 1189.5 hPa | 0 mm | - | 775 W/m² | - |
| 1787769333 | 37.22° C | 15% | 1189.7 hPa | 0 mm | - | 974 W/m² | - |
| 1787769028 | 37.22° C | 15% | 1189.9 hPa | 0 mm | - | 956 W/m² | - |
| 1787768723 | 36.67° C | 15% | 1189.9 hPa | 0 mm | - | 1018 W/m² | - |
| 1787768420 | 36.11° C | 15% | 1189.8 hPa | 0 mm | - | 1000 W/m² | - |
| 1787768115 | 36.11° C | 15% | 1189.9 hPa | 0 mm | - | 976 W/m² | - |
| 1787767810 | 36.11° C | 15% | 1189.9 hPa | 0 mm | - | 964 W/m² | - |
| 1787767506 | 36.67° C | 15% | 1189.8 hPa | 0 mm | - | 963 W/m² | - |
| 1787767204 | 36.11° C | 15% | 1190 hPa | 0 mm | - | 953 W/m² | - |
* Rain latest hour (hover to see other rain measurements)
** Current wind speed in m/s (hover to see current wind gust speed)